Date String (YYYY-MM-DD hh:mm:ss) UTC,Instrument flags,absolute air pressure of the measurement (hPa),sample flow rate (lpm),inlet stack bypass flow (lpm),air temperature of the measurement (°C),ambient temperature measured by the external sensor (°C),aerosol sample conditioner tube jacket temperature (°C),OPC LED temperature (°C),internal box temperature (°C),relative humidity of the measurement (%),span deviation,mass concentration of particles derived from Lorenz-Mie calculation of OPC scattering (μg/m³),mass concentration of particles derived from Lorenz-Mie calculation of OPC scattering (μg/m³),mass concentration of particles derived from Lorenz-Mie calculation of OPC scattering (μg/m³)
DateTimeUTC,F1_M11,P_M11,Q1_M11,Q2_M11,T1_M11,T2_M11,T3_M11,T4_M11,T5_M11,U1_M11,ZSPAN_M11,X0_M11,X2_M11,X1_M11
2024-06-04 07:00:00,SystemResetWarning,0821.8,5.00,000.00,029.9,029.1,000.0,038.3,031.7,019.2,0000.0,0006.39,0001.77,0000.99
2024-06-04 07:01:00,SystemResetWarning,0821.7,5.00,000.00,029.9,029.1,000.0,038.3,031.7,019.2,0000.0,0006.93,0001.72,0000.99
2024-06-04 07:02:00,SystemResetWarning,0821.8,5.01,000.00,030.0,029.2,000.0,038.3,031.7,019.2,0000.0,0006.99,0001.68,0000.98
2024-06-04 07:03:00,SystemResetWarning,0821.8,5.00,000.00,030.0,029.2,000.0,038.4,031.8,019.2,0000.0,0006.65,0001.57,0000.97
2024-06-04 07:04:00,SystemResetWarning,0821.9,4.99,000.00,030.0,029.3,000.0,038.4,031.8,019.1,0000.0,0005.92,0001.49,0000.97
2024-06-04 07:05:00,SystemResetWarning,0821.9,4.99,000.00,030.0,029.3,000.0,038.4,031.8,019.1,0000.0,0005.69,0001.47,0000.97
2024-06-04 07:06:00,SystemResetWarning,0822.0,5.01,000.00,030.1,029.3,000.0,038.4,031.9,019.1,0000.0,0005.24,0001.46,0000.97
2024-06-04 07:07:00,SystemResetWarning,0822.0,5.00,000.00,030.1,029.4,000.0,038.4,031.9,019.1,0000.0,0004.69,0001.47,0000.97
2024-06-04 07:08:00,SystemResetWarning,0822.0,5.01,000.00,030.1,029.4,000.0,038.4,031.9,019.1,0000.0,0004.54,0001.46,0000.96
2024-06-04 07:09:00,SystemResetWarning,0822.0,5.01,000.00,030.1,029.4,000.0,038.4,031.9,019.1,0000.0,0004.42,0001.43,0000.96
2024-06-04 07:10:00,SystemResetWarning,0822.0,5.01,000.00,030.1,029.4,000.0,038.4,031.9,019.3,0000.0,0004.24,0001.39,0000.97
2024-06-04 07:11:00,SystemResetWarning,0822.0,5.00,000.00,030.2,029.5,000.0,038.4,032.0,019.5,0000.0,0004.79,0001.38,0000.98
2024-06-04 07:12:00,SystemResetWarning,0822.0,5.00,000.00,030.2,029.5,000.0,038.4,032.0,019.7,0000.0,0004.87,0001.41,0001.00
2024-06-04 07:13:00,SystemResetWarning,0822.0,5.00,000.00,030.2,029.5,000.0,038.5,031.9,019.8,0000.0,0003.95,0001.44,0001.03
2024-06-04 07:14:00,SystemResetWarning,0822.1,4.99,000.00,030.2,029.5,000.0,038.5,031.9,019.9,0000.0,0004.57,0001.49,0001.07
2024-06-04 07:15:00,SystemResetWarning,0822.1,5.00,000.00,030.2,029.5,000.0,038.5,032.0,019.9,0000.0,0005.19,0001.58,0001.11
2024-06-04 07:16:00,SystemResetWarning,0822.1,5.01,000.00,030.3,029.6,000.0,038.5,032.0,019.9,0000.0,0005.15,0001.61,0001.15
2024-06-04 07:17:00,SystemResetWarning,0822.1,5.00,000.00,030.3,029.6,000.0,038.5,032.0,019.9,0000.0,0005.30,0001.67,0001.18
2024-06-04 07:18:00,SystemResetWarning,0822.1,5.01,000.00,030.3,029.6,000.0,038.5,032.1,019.8,0000.0,0005.54,0001.75,0001.22
2024-06-04 07:19:00,SystemResetWarning,0822.1,5.00,000.00,030.3,029.6,000.0,038.5,032.0,019.8,0000.0,0005.75,0001.83,0001.26
2024-06-04 07:20:00,SystemResetWarning,0822.1,4.99,000.00,030.3,029.6,000.0,038.5,032.1,019.8,0000.0,0005.88,0001.90,0001.28
2024-06-04 07:21:00,SystemResetWarning,0822.1,4.99,000.00,030.4,029.6,000.0,038.6,032.1,019.8,0000.0,0006.21,0001.99,0001.29
2024-06-04 07:22:00,SystemResetWarning,0822.1,5.01,000.00,030.4,029.7,000.0,038.6,032.1,019.8,0000.0,0006.03,0002.01,0001.30
2024-06-04 07:23:00,SystemResetWarning,0822.1,5.01,000.00,030.4,029.7,000.0,038.6,032.1,019.8,0000.0,0004.80,0002.02,0001.30
2024-06-04 07:24:00,SystemResetWarning,0822.1,4.99,000.00,030.4,029.7,000.0,038.6,032.1,019.8,0000.0,0004.73,0002.01,0001.30
2024-06-04 07:25:00,SystemResetWarning,0822.1,4.99,000.00,030.4,029.7,000.0,038.6,032.1,019.7,0000.0,0004.54,0001.98,0001.29
2024-06-04 07:26:00,SystemResetWarning,0822.1,4.99,000.00,030.4,029.7,000.0,038.6,032.1,019.7,0000.0,0003.63,0001.95,0001.28
2024-06-04 07:27:00,SystemResetWarning,0822.1,5.01,000.00,030.4,029.7,000.0,038.6,032.1,019.7,0000.0,0003.68,0001.96,0001.27
2024-06-04 07:28:00,SystemResetWarning,0822.1,5.01,000.00,030.4,029.7,000.0,038.6,032.1,019.7,0000.0,0003.74,0001.99,0001.26
2024-06-04 07:29:00,SystemResetWarning,0822.1,5.01,000.00,030.4,029.7,000.0,038.7,032.2,019.7,0000.0,0004.42,0001.96,0001.24
2024-06-04 07:30:00,SystemResetWarning,0822.1,4.99,000.00,030.4,029.7,000.0,038.7,032.2,019.7,0000.0,0004.42,0001.91,0001.25
2024-06-04 07:31:00,SystemResetWarning,0822.1,4.99,000.00,030.5,029.7,000.0,038.7,032.2,019.8,0000.0,0004.20,0001.86,0001.24
2024-06-04 07:32:00,SystemResetWarning,0822.1,4.99,000.00,030.5,029.7,000.0,038.7,032.2,019.7,0000.0,0004.00,0001.79,0001.24
2024-06-04 07:33:00,SystemResetWarning,0822.1,5.01,000.00,030.5,029.8,000.0,038.7,032.2,019.7,0000.0,0004.18,0001.81,0001.26
2024-06-04 07:34:00,SystemResetWarning,0822.1,5.01,000.00,030.5,029.8,000.0,038.7,032.2,019.6,0000.0,0004.21,0001.80,0001.26
2024-06-04 07:35:00,SystemResetWarning,0822.2,5.01,000.00,030.5,029.8,000.0,038.7,032.2,019.6,0000.0,0004.43,0001.83,0001.25
2024-06-04 07:36:00,SystemResetWarning,0822.3,5.00,000.00,030.5,029.8,000.0,038.7,032.2,019.6,0000.0,0004.46,0001.85,0001.26
2024-06-04 07:37:00,SystemResetWarning,0822.3,5.00,000.00,030.5,029.8,000.0,038.8,032.2,019.6,0000.0,0004.43,0001.82,0001.25
2024-06-04 07:38:00,SystemResetWarning,0822.4,5.00,000.00,030.5,029.8,000.0,038.8,032.2,019.6,0000.0,0004.39,0001.80,0001.23
2024-06-04 07:39:00,SystemResetWarning,0822.4,5.00,000.00,030.5,029.8,000.0,038.8,032.2,019.6,0000.0,0004.66,0001.79,0001.23
2024-06-04 07:40:00,SystemResetWarning,0822.4,5.00,000.00,030.5,029.8,000.0,038.8,032.2,019.6,0000.0,0004.12,0001.80,0001.23
2024-06-04 07:41:00,SystemResetWarning,0822.4,5.00,000.00,030.5,029.8,000.0,038.8,032.2,019.6,0000.0,0004.13,0001.85,0001.22
2024-06-04 07:42:00,SystemResetWarning,0822.5,5.00,000.00,030.6,029.8,000.0,038.8,032.2,019.6,0000.0,0004.18,0001.87,0001.22
2024-06-04 07:43:00,SystemResetWarning,0822.6,5.00,000.00,030.6,029.8,000.0,038.8,032.2,019.6,0000.0,0004.17,0001.89,0001.23
2024-06-04 07:44:00,SystemResetWarning,0822.8,4.99,000.00,030.6,029.8,000.0,038.8,032.2,019.6,0000.0,0004.11,0001.92,0001.22
2024-06-04 07:45:00,SystemResetWarning,0822.8,5.01,000.00,030.6,029.9,000.0,038.8,032.2,019.6,0000.0,0004.13,0001.94,0001.23
2024-06-04 07:46:00,SystemResetWarning,0822.6,5.01,000.00,030.6,029.9,000.0,038.8,032.2,019.6,0000.0,0004.11,0001.95,0001.23
2024-06-04 07:47:00,SystemResetWarning,0822.6,5.00,000.00,030.6,029.9,000.0,038.9,032.2,019.6,0000.0,0003.94,0001.92,0001.23
2024-06-04 07:48:00,SystemResetWarning,0822.6,4.99,000.00,030.6,029.9,000.0,038.9,032.2,019.5,0000.0,0004.07,0001.93,0001.23
2024-06-04 07:49:00,SystemResetWarning,0822.6,5.00,000.00,030.6,029.9,000.0,038.9,032.3,019.5,0000.0,0004.18,0001.96,0001.23
2024-06-04 07:50:00,SystemResetWarning,0822.7,5.00,000.00,030.6,029.9,000.0,038.9,032.3,019.5,0000.0,0004.01,0001.93,0001.24
2024-06-04 07:51:00,SystemResetWarning,0822.9,5.00,000.00,030.6,029.9,000.0,038.9,032.3,019.5,0000.0,0003.52,0001.90,0001.23
2024-06-04 07:52:00,SystemResetWarning,0822.9,5.00,000.00,030.6,029.9,000.0,038.9,032.3,019.4,0000.0,0003.39,0001.85,0001.24
2024-06-04 07:53:00,SystemResetWarning,0822.8,5.00,000.00,030.6,029.9,000.0,038.9,032.3,019.5,0000.0,0003.41,0001.87,0001.24
2024-06-04 07:54:00,SystemResetWarning,0822.7,5.00,000.00,030.7,029.9,000.0,038.9,032.3,019.6,0000.0,0003.34,0001.85,0001.23
2024-06-04 07:55:00,SystemResetWarning,0822.8,5.00,000.00,030.7,029.9,000.0,038.9,032.4,019.5,0000.0,0003.23,0001.83,0001.23
2024-06-04 07:56:00,SystemResetWarning,0822.6,4.99,000.00,030.7,030.0,000.0,038.9,032.4,019.5,0000.0,0003.21,0001.82,0001.23
2024-06-04 07:57:00,SystemResetWarning,0822.7,5.00,000.00,030.7,030.0,000.0,039.0,032.4,019.5,0000.0,0003.28,0001.84,0001.22
2024-06-04 07:58:00,SystemResetWarning,0823.1,5.00,000.00,030.7,030.0,000.0,039.0,032.4,019.5,0000.0,0003.32,0001.85,0001.22
2024-06-04 07:59:00,SystemResetWarning,0822.9,5.00,000.00,030.7,030.0,000.0,039.0,032.4,019.6,0000.0,0003.39,0001.86,0001.22
